Regional Weather Roundup
Issued by NWS

Home | Current Version | Previous Version | Graphics & Text | Print | Product List | Glossary On
Versions: 1 2 3 4 5 6 7 8 9 10 11 12 13 14 15 16 17 18 19 20 21 22 23 24 25 26 27 28 29 30 31 32 33 34 35 36 37 38 39 40 41 42 43 44 45 46 47 48 49 50
000
ASUS43 KLSX 260959
RWRMO

WEATHER SUMMARY FOR MISSOURI
NATIONAL WEATHER SERVICE SPRINGFIELD MO
400 AM CST WED NOV 26 2014

NOTE: "FAIR" INDICATES FEW OR NO CLOUDS BELOW 12,000 FEET WITH NO
       SIGNIFICANT WEATHER AND/OR OBSTRUCTIONS TO VISIBILITY.
       CURRENT SKY AND/OR WEATHER CONDITIONS ARE NOT AVAILABLE FOR
       CHILLICOTHE AND FARMINGTON.

MOZ001>031-035>038-043-044-053-054-261100-
...NORTHERN AND WESTERN MISSOURI...

CITY           SKY/WX    TMP DP  RH WIND       PRES   REMARKS
KANSAS CTY INT LGT RAIN  36  33  89 S14       29.93F WCI  27
KANSAS C DTWN  LGT RAIN  38  32  79 SW10      29.96F
LEE`S SUMMIT   LGT SNOW  37  25  61 SW8       29.97R
ST JOSEPH      CLOUDY    35  32  88 S10       29.91F WCI  27
CHILLICOTHE      N/A     34  23  64 S9        29.97F WCI  27
KIRKSVILLE     CLOUDY    29  22  75 SE9       29.99F WCI  20

$$
MOZ066>068-077>081-088>096-101>105-261100-
...SOUTHWEST MISSOURI...

CITY           SKY/WX    TMP DP  RH WIND       PRES   REMARKS
SPRINGFIELD    MOCLDY    33  22  63 SE14      29.97F WCI  23
JOPLIN         CLOUDY    39  23  52 S12       29.96F

$$
MOZ032>034-039>042-045>050-055>058-069>072-261100-
...CENTRAL MISSOURI...

CITY           SKY/WX    TMP DP  RH WIND       PRES   REMARKS
COLUMBIA       CLOUDY    29  20  69 SE7       30.01F WCI  22
JEFFERSON CITY CLOUDY    29  21  72 SE5       30.03F WCI  24
ROLLA          CLEAR     30  18  60 SE12      30.00F WCI  20
SEDALIA        CLOUDY    35  22  58 SE6       29.99S
OSAGE BEACH    CLOUDY    30  18  59 S9        29.99F WCI  22

$$
MOZ051-052-059>065-261100-
...EAST CENTRAL MISSOURI...

CITY           SKY/WX    TMP DP  RH WIND       PRES   REMARKS
ST LOUIS INTL  CLOUDY    30  25  81 E5        30.09F WCI  25
SPIRIT OF STL  CLOUDY    26  23  88 CALM      30.08F
ST CHARLES     CLOUDY    29  27  92 E8        30.09F WCI  21

$$
MOZ072>076-082>087-097>100-106>115-261100-
...SOUTH CENTRAL AND SOUTHEAST MISSOURI...

CITY           SKY/WX    TMP DP  RH WIND       PRES   REMARKS
CAPE GIRARDEAU CLEAR     29  26  89 E3        30.13F
FARMINGTON     MOCLDY    25  21  86 CALM      30.09S
POPLAR BLUFF   PTCLDY    25  21  85 CALM      30.11F
WEST PLAINS    PTCLDY    29  18  63 SE3       30.05F

$$


USA.gov is the U.S. government's official web portal to all federal, state and local government web resources and services.